Weather History for Buckland, AK

Change the Weather History Date:

Sunday, January 20, 2013

  Actual Average (PASK) Record (PASK)
Temperature  
Mean Temperature 10 °F -  
Max Temperature 12 °F 1 °F 37 °F (2008)
Min Temperature 8 °F -8 °F -45 °F (1999)
Degree Days  
Heating Degree Days 55    
Moisture  
Dew Point 5 °F    
Average Humidity 79    
Maximum Humidity 92    
Minimum Humidity 62    
Precipitation  
Precipitation 0.00 in - - ()
Sea Level Pressure  
Sea Level Pressure 29.99 in    
Wind  
Wind Speed 22 mph (ESE)    
Max Wind Speed 31 mph    
Max Gust Speed 44 mph    
Visibility 6 miles    
Events      
Averages and records for this station are not official NWS values.
T = Trace of Precipitation, MM = Missing Value Source: NWS Daily Summary

Daily Weather History Graph

Daily Weather History Graph

Search for Another Location

Airport:

Trip Planner

Search our weather history database for the weather conditions in past years. The results will help you decide how hot, cold, wet, or windy it might be!

Date:

Astronomy

Jan. 20, 2013 Rise Set
Actual Time 11:19 AM AKST 4:32 PM AKST
Civil Twilight 10:06 AM AKST 5:45 PM AKST
Nautical Twilight 8:58 AM AKST 6:53 PM AKST
Astronomical Twilight 7:57 AM AKST 7:55 PM AKST
Moon 11:48 AM AKST 5:51 AM AKST
Length of Visible Light 7h 38m
Length of Day
5h 13m
Waxing Gibbous, 67% of the Moon is Illuminated
Jan 20
Waxing Gibbous
Jan 26
Full
Feb 3
Last Quarter
Feb 9
New
Feb 17
First Quarter

Hourly Weather History & Observations

Time (AKST) Temp. Windchill Dew Point Humidity Pressure Visibility Wind Dir Wind Speed Gust Speed Precip Events Conditions
12:16 AM 8.6 °F -11.0 °F -0.4 °F 67% 30.06 in 10.0 mi SE 20.7 mph 29.9 mph N/A   Unknown
12:36 AM 10.4 °F -9.5 °F -0.4 °F 62% 30.07 in 10.0 mi SE 23.0 mph 28.8 mph N/A   Unknown
12:56 AM 10.4 °F -9.5 °F -0.4 °F 62% 30.05 in 8.0 mi SE 23.0 mph 32.2 mph N/A   Unknown
1:16 AM 10.4 °F -8.2 °F 1.4 °F 67% 30.06 in 10.0 mi SE 19.6 mph 27.6 mph N/A   Unknown
1:36 AM 10.4 °F -9.5 °F 1.4 °F 67% 30.05 in 10.0 mi ESE 23.0 mph 32.2 mph N/A   Unknown
1:56 AM 10.4 °F -9.1 °F 1.4 °F 67% 30.04 in 10.0 mi ESE 21.9 mph 32.2 mph N/A   Unknown
2:16 AM 10.4 °F -9.5 °F 1.4 °F 67% 30.04 in 10.0 mi ESE 23.0 mph 29.9 mph N/A   Unknown
2:36 AM 10.4 °F -9.9 °F 1.4 °F 67% 30.03 in 10.0 mi SE 24.2 mph 29.9 mph N/A   Unknown
2:56 AM 10.4 °F -9.1 °F 1.4 °F 67% 30.03 in 10.0 mi ESE 21.9 mph 33.4 mph N/A   Unknown
3:16 AM 10.4 °F -7.7 °F -0.4 °F 62% 30.03 in 10.0 mi ESE 18.4 mph 29.9 mph N/A   Unknown
3:36 AM 10.4 °F -7.7 °F 1.4 °F 67% 30.03 in 10.0 mi ESE 18.4 mph 25.3 mph N/A   Unknown
3:56 AM 10.4 °F -10.3 °F 1.4 °F 67% 30.00 in 10.0 mi SE 25.3 mph 31.1 mph N/A   Unknown
4:16 AM 10.4 °F -9.5 °F 1.4 °F 67% 30.01 in 10.0 mi ESE 23.0 mph 31.1 mph N/A   Unknown
4:36 AM 10.4 °F -8.6 °F 3.2 °F 73% 30.01 in 5.0 mi ESE 20.7 mph 27.6 mph N/A   Unknown
4:56 AM 10.4 °F -11.0 °F 3.2 °F 73% 29.98 in 5.0 mi ESE 27.6 mph 34.5 mph N/A   Unknown
5:16 AM 10.4 °F -9.1 °F 3.2 °F 73% 29.99 in 3.0 mi ESE 21.9 mph 26.5 mph N/A   Unknown
5:36 AM 10.4 °F -9.9 °F 6.8 °F 85% 29.99 in 2.5 mi ESE 24.2 mph 32.2 mph N/A   Unknown
5:56 AM 10.4 °F -8.6 °F 3.2 °F 73% 29.99 in 2.0 mi SE 20.7 mph 28.8 mph N/A   Unknown
6:16 AM 10.4 °F -8.6 °F 5.0 °F 79% 29.98 in 2.5 mi ESE 20.7 mph 27.6 mph N/A   Unknown
6:36 AM 10.4 °F -8.6 °F 5.0 °F 79% 29.98 in 2.5 mi SE 20.7 mph 31.1 mph N/A   Unknown
6:56 AM 10.4 °F -10.7 °F 6.8 °F 85% 29.98 in 1.5 mi SE 26.5 mph 33.4 mph N/A   Unknown
7:16 AM 10.4 °F -7.7 °F 6.8 °F 85% 29.98 in 1.8 mi ESE 18.4 mph 25.3 mph N/A   Unknown
7:36 AM 10.4 °F -9.5 °F 6.8 °F 85% 29.97 in 1.8 mi ESE 23.0 mph 28.8 mph N/A   Unknown
7:56 AM 10.4 °F -8.2 °F 5.0 °F 79% 29.97 in 1.5 mi ESE 19.6 mph 27.6 mph N/A   Unknown
8:16 AM 10.4 °F -8.2 °F 6.8 °F 85% 29.96 in 3.0 mi East 19.6 mph 24.2 mph N/A   Unknown
8:36 AM 10.4 °F -7.2 °F 8.6 °F 92% 29.96 in 2.0 mi ESE 17.3 mph 24.2 mph N/A   Unknown
8:56 AM 10.4 °F -5.4 °F 6.8 °F 85% 29.96 in 2.0 mi ESE 13.8 mph 18.4 mph N/A   Unknown
9:16 AM 10.4 °F -6.0 °F 6.8 °F 85% 29.96 in 8.0 mi ESE 15.0 mph - N/A   Unknown
9:36 AM 8.6 °F -6.3 °F 5.0 °F 85% 29.95 in 5.0 mi ESE 11.5 mph 17.3 mph N/A   Unknown
9:56 AM 10.4 °F -4.1 °F 5.0 °F 79% 29.95 in 10.0 mi ESE 11.5 mph 18.4 mph N/A   Unknown
10:16 AM 10.4 °F -9.1 °F 6.8 °F 85% 29.94 in 5.0 mi ESE 21.9 mph 27.6 mph N/A   Unknown
10:36 AM 10.4 °F -9.5 °F 6.8 °F 85% 29.94 in 3.0 mi ESE 23.0 mph 31.1 mph N/A   Unknown
10:56 AM 10.4 °F -8.6 °F 6.8 °F 85% 29.94 in 3.0 mi ESE 20.7 mph 31.1 mph N/A   Unknown
11:16 AM 10.4 °F -8.6 °F 6.8 °F 85% 29.94 in 3.0 mi ESE 20.7 mph 28.8 mph N/A   Unknown
11:36 AM 10.4 °F -10.3 °F 6.8 °F 85% 29.94 in 2.5 mi ESE 25.3 mph 34.5 mph N/A   Unknown
11:56 AM 10.4 °F -10.7 °F 6.8 °F 85% 29.94 in 1.5 mi ESE 26.5 mph 36.8 mph N/A   Unknown
12:16 PM 10.4 °F -11.0 °F 6.8 °F 85% 29.94 in 1.0 mi ESE 27.6 mph 39.1 mph N/A   Unknown
12:36 PM 10.4 °F -11.0 °F 6.8 °F 85% 29.94 in 1.0 mi East 27.6 mph 38.0 mph N/A   Unknown
12:56 PM 10.4 °F -10.7 °F 6.8 °F 85% 29.94 in 1.2 mi ESE 26.5 mph 39.1 mph N/A   Unknown
1:16 PM 10.4 °F -10.3 °F 6.8 °F 85% 29.94 in 2.0 mi ESE 25.3 mph 39.1 mph N/A   Unknown
1:36 PM 10.4 °F -11.4 °F 6.8 °F 85% 29.94 in 1.8 mi ESE 28.8 mph 35.7 mph N/A   Unknown
1:56 PM 10.4 °F -10.7 °F 6.8 °F 85% 29.95 in 2.5 mi ESE 26.5 mph 39.1 mph N/A   Unknown
2:16 PM 12.2 °F -8.9 °F 8.6 °F 85% 29.94 in 2.0 mi ESE 28.8 mph 39.1 mph N/A   Unknown
2:36 PM 10.4 °F -12.0 °F 6.8 °F 85% 29.93 in 1.5 mi ESE 31.1 mph 43.7 mph N/A   Unknown
3:16 PM 12.2 °F -8.6 °F 8.6 °F 85% 29.95 in 2.5 mi ESE 27.6 mph 36.8 mph N/A   Unknown
3:36 PM 12.2 °F -8.2 °F 8.6 °F 85% 29.96 in 3.0 mi East 26.5 mph 38.0 mph N/A   Unknown
3:56 PM 12.2 °F -8.6 °F 8.6 °F 85% 29.96 in 2.0 mi ESE 27.6 mph 38.0 mph N/A   Unknown
4:16 PM 12.2 °F -7.5 °F 8.6 °F 85% 29.96 in 1.2 mi East 24.2 mph 42.6 mph N/A   Unknown
4:36 PM 12.2 °F -9.3 °F 6.8 °F 79% 29.96 in 3.0 mi East 29.9 mph 36.8 mph N/A   Unknown
4:56 PM 12.2 °F -8.6 °F 6.8 °F 79% 29.96 in 2.5 mi ESE 27.6 mph 39.1 mph N/A   Unknown
5:16 PM 12.2 °F -8.6 °F 6.8 °F 79% 29.96 in 3.0 mi East 27.6 mph 38.0 mph N/A   Unknown
5:36 PM 12.2 °F -7.9 °F 6.8 °F 79% 29.96 in 8.0 mi ESE 25.3 mph 35.7 mph N/A   Unknown
5:56 PM 12.2 °F -8.2 °F 6.8 °F 79% 29.97 in 8.0 mi ESE 26.5 mph 34.5 mph N/A   Unknown
6:16 PM 12.2 °F -7.5 °F 6.8 °F 79% 29.98 in 7.0 mi East 24.2 mph 36.8 mph N/A   Unknown
6:36 PM 12.2 °F -8.2 °F 6.8 °F 79% 29.97 in 8.0 mi East 26.5 mph 36.8 mph N/A   Unknown
6:56 PM 12.2 °F -6.7 °F 6.8 °F 79% 29.99 in 10.0 mi ESE 21.9 mph 31.1 mph N/A   Unknown
7:16 PM 12.2 °F -6.7 °F 6.8 °F 79% 30.00 in 10.0 mi ESE 21.9 mph 28.8 mph N/A   Unknown
7:36 PM 12.2 °F -5.3 °F 6.8 °F 79% 30.01 in 10.0 mi ESE 18.4 mph 31.1 mph N/A   Unknown
7:56 PM 12.2 °F -7.1 °F 6.8 °F 79% 30.01 in 10.0 mi East 23.0 mph 28.8 mph N/A   Unknown
8:16 PM 12.2 °F -6.7 °F 6.8 °F 79% 30.02 in 10.0 mi East 21.9 mph 29.9 mph N/A   Unknown
8:36 PM 12.2 °F -6.3 °F 6.8 °F 79% 30.01 in 10.0 mi ESE 20.7 mph 28.8 mph N/A   Unknown
8:56 PM 12.2 °F -5.3 °F 6.8 °F 79% 30.02 in 10.0 mi ESE 18.4 mph 28.8 mph N/A   Unknown
9:16 PM 12.2 °F -5.8 °F 6.8 °F 79% 30.02 in 10.0 mi ESE 19.6 mph 28.8 mph N/A   Unknown
9:36 PM 12.2 °F -7.1 °F 6.8 °F 79% 30.02 in 10.0 mi East 23.0 mph 29.9 mph N/A   Unknown
9:56 PM 12.2 °F -6.7 °F 6.8 °F 79% 30.03 in 10.0 mi East 21.9 mph 31.1 mph N/A   Unknown
10:16 PM 12.2 °F -5.8 °F 6.8 °F 79% 30.05 in 10.0 mi East 19.6 mph 27.6 mph N/A   Unknown
10:36 PM 12.2 °F -5.3 °F 6.8 °F 79% 30.05 in 10.0 mi East 18.4 mph 26.5 mph N/A   Unknown
10:56 PM 12.2 °F -5.3 °F 6.8 °F 79% 30.05 in 10.0 mi East 18.4 mph 26.5 mph N/A   Unknown
11:16 PM 12.2 °F -5.8 °F 6.8 °F 79% 30.05 in 10.0 mi East 19.6 mph 27.6 mph N/A   Unknown
11:36 PM 10.4 °F -8.2 °F 5.0 °F 79% 30.06 in 10.0 mi East 19.6 mph 24.2 mph N/A   Unknown
11:56 PM 10.4 °F -6.0 °F 5.0 °F 79% 30.07 in 10.0 mi East 15.0 mph 21.9 mph N/A   Unknown